Погода в Назрани

Россия / Республика Ингушетия     43°13′32″N   44°45′52″E
темп.,
°C
ветер,
м/с
пор.,
м/с
влажн.,
%
обл.,
%
осадки,
мм/ч
давл.,
гПа
погр.,
м
29 ноября, пн
пн2900:00+7сз115851 0.0 101410
03:00+7з116061 0.0 101610
06:00+5ююв11651 0.0 101610
09:00+9вюв1162100 0.0 101620
12:00+13всв225084 0.0 1014185
15:00+13в23534 0.0 1014120
18:00+10юв22640 0.0 101312
21:00+10вюв22604 0.0 101211
30 ноября, вт
вт3000:00+11юв33476 0.0 100815
03:00+12ю3349100 0.0 100617
06:00+13ю3452100 0.0 100426
09:00+14з3448100 0.0 100552
12:00+12ссз2366100 0.0 1009496
15:00+12вюв46685 0.0 1006413
18:00+10в411790 0.0 1004269
21:00+9в815800 0.0 998280
1 декабря, ср
ср100:00+9вюв22750 0.0 99415
03:00+7зюз6149220 0.0 997350
06:00+7зюз349099 0.0 1000261
09:00+8в238172 0.0 100191
12:00+7с81076100 0.4 1004567
15:00+4с3470100 0.9 1008691
18:00+2ссв4585100 0.4 1012501
21:00+2в2498100 1.3 1013159
2 декабря, чт
чт200:00+1вюв259445 0.0 1014200
03:00+1вюв11908 0.0 101510
06:00+1юв11795 0.0 101612
09:00+3юз22650 0.0 1018113
12:00+6с22520 0.0 1019609
15:00+6в44530 0.0 1019667
18:00+3в35704 0.0 1021100
21:00+2в23740 0.0 102148
3 декабря, пт
пт300:00+2в22750 0.0 102111
03:00+1ююв11755 0.0 102010
06:00+1ююз11705 0.0 102010
09:00+4юз115670 0.0 102050
12:00+8ссв1141100 0.0 1018246
15:00+8ссв1147100 0.0 101845
18:00+5ю115983 0.0 101910
21:00+4ююв11614 0.0 101910